Location: Unspecified
(42.9300°N, 71.1866°W)
Time: 11:20:50
(UTC-05:00)

Okean 3 - Visible Passes

Search period start: 23 February 2017 00:00
Search period end: 05 March 2017 00:00
Orbit: 579 x 602 km, 82.5° (Epoch: 23 February)

Date Brightness Start Highest point End Pass type
(mag) Time Alt. Az. Time Alt. Az. Time Alt. Az.
23 Feb 6.9 05:07:12 10° ESE 05:09:23 14° E 05:11:34 10° NE visible
23 Feb 6.7 18:24:03 10° NW 18:27:02 19° W 18:29:59 10° SW visible
24 Feb 6.5 05:14:23 10° SE 05:17:32 20° E 05:20:43 10° NE visible
24 Feb 7.0 18:33:21 10° WNW 18:35:11 12° W 18:36:59 10° WSW visible
25 Feb 5.7 05:22:01 10° SSE 05:25:44 29° E 05:29:30 10° NNE visible
26 Feb 4.9 05:29:54 10° SSE 05:33:58 44° E 05:38:05 10° NNE visible
27 Feb 3.9 05:37:59 10° S 05:42:15 68° E 05:46:33 10° NNE visible
28 Feb 3.5 05:46:16 10° S 05:50:34 80° W 05:54:54 10° N visible
01 Mar 6.8 04:20:03 10° ESE 04:22:09 13° E 04:24:16 10° NE visible
02 Mar 6.3 04:27:11 10° SE 04:30:18 20° E 04:33:26 10° NE visible
03 Mar 5.6 04:34:47 10° SSE 04:38:30 29° E 04:42:14 10° NNE visible
04 Mar 4.8 04:42:39 10° SSE 04:46:44 43° E 04:50:50 10° NNE visible
